TDRS 7

Last updated on Fri Sep 19 2025 00:02:40 GMT+0000 (Coordinated Universal Time)

1 23613U 95035B 25260.68951341 -.00000252 00000+0 00000+0 0 9997 2 23613 13.4910 350.0515 0007963 105.8217 238.1991 1.00277726110516
UTC large
Height (km)
Speed (km/s)
/
Latitude / Longitude
Inclination (degrees)
Orbital Period (minutes)
Azimuth
Elevation
Range (km)
Doppler Factor

Next 0 passes for location: London (51.5072 / 0.1276)

Sorry there are no passes over London.